Location: Franzen
(48.6167°N, 15.3833°E)
Time: 13:18:57
(UTC+00:00)

Meteor 1-26 Rocket - Pass Details

Date: 22 April 2021
Orbit: 806 x 929 km, 81.3° (Epoch: 16 May)

Event Time Altitude Azimuth Distance (km) Brightness Sun altitude
Exits shadow 21:59:50 66° 93° (E) 981 4.3 -27.6°
Drops below altitude 10° 22:05:30 10° 17° (NNE) 2,545 7.4 -27.8°
Sets 22:07:56 0° 14° (NNE) 3,468 8.3 -27.9°
